Location: Newark
(60.6561°N, 46.5772°E)
Time: 05:03:29
(UTC+00:00)

Tiros 1 despin weight - Pass Details

Date: 29 October 2019
Orbit: 594 x 642 km, 48.2° (Epoch: 14 November)

Event Time Altitude Azimuth Distance (km) Brightness Sun altitude
Rises 18:45:36 0° 207° (SSW) 2,900 - -38.7°
Reaches altitude 10° 18:49:24 10° 175° (S) 2,009 - -38.9°
Maximum altitude 18:51:00 12° 155° (SSE) 1,906 - -39.1°
Drops below altitude 10° 18:52:35 10° 135° (SE) 2,020 - -39.2°
Sets 18:56:26 0° 104° (ESE) 2,940 - -39.4°
